When you browse on this site, cookies collect data to enhance your experience and personalize the content and advertising you see.
Visit our Privacy Policy to learn more. By continuing to use the site, you agree to this use of cookies and data.
  • Em Portugal
  • Lista de países
  • Para 7 dias
  • Temperatura da água
  • Mapas de satélite
  • Mapa do tempo
  • Widgets de tempo
  • user-avatar
    Iniciar Sessão

    Previsão horária em Ramadi

    Hoje, 21 Março, Quinta-feira

    Tempo Temperatura Precipitação Vento Pressão Humidade
    00:00 +16°C° 0 mm 3 m/s 758 mmHg 34%
    01:00 +16°C° 0 mm 3 m/s 758 mmHg 36%
    02:00 +14°C° 0 mm 3 m/s 758 mmHg 37%
    03:00 +14°C° 0 mm 3 m/s 758 mmHg 38%
    04:00 +14°C° 0 mm 3 m/s 758 mmHg 39%
    05:00 +14°C° 0 mm 2 m/s 758 mmHg 40%
    06:00 +14°C° 0 mm 2 m/s 758 mmHg 41%
    07:00 +15°C° 0 mm 2 m/s 758 mmHg 38%
    08:00 +16°C° 0 mm 3 m/s 758 mmHg 34%
    09:00 +17°C° 0 mm 3 m/s 759 mmHg 30%
    10:00 +18°C° 0 mm 3 m/s 759 mmHg 26%
    11:00 +19°C° 0 mm 4 m/s 759 mmHg 23%
    12:00 +20°C° 0 mm 4 m/s 759 mmHg 19%
    13:00 +21°C° 0 mm 4 m/s 758 mmHg 18%
    14:00 +21°C° 0 mm 4 m/s 758 mmHg 17%
    15:00 +22°C° 0 mm 4 m/s 757 mmHg 16%
    16:00 +22°C° 0 mm 4 m/s 757 mmHg 17%
    17:00 +21°C° 0 mm 3 m/s 757 mmHg 18%
    18:00 +21°C° 0 mm 3 m/s 757 mmHg 18%
    19:00 +20°C° 0 mm 2 m/s 757 mmHg 20%
    20:00 +19°C° 0 mm 2 m/s 757 mmHg 22%
    21:00 +20°C° 0 mm 1 m/s 758 mmHg 24%
    22:00 +19°C° 0 mm 1 m/s 758 mmHg 25%
    23:00 +19°C° 0 mm 1 m/s 758 mmHg 26%

    Amanhã, 22 Março, Sexta-feira

    Tempo Temperatura Precipitação Vento Pressão Humidade
    00:00 +18°C° 0 mm 1 m/s 758 mmHg 27%
    01:00 +18°C° 0 mm 1 m/s 758 mmHg 28%
    02:00 +18°C° 0 mm 1 m/s 757 mmHg 28%
    03:00 +17°C° 0 mm 2 m/s 757 mmHg 29%
    04:00 +16°C° 0 mm 2 m/s 757 mmHg 30%
    05:00 +16°C° 0 mm 2 m/s 758 mmHg 31%
    06:00 +15°C° 0 mm 2 m/s 758 mmHg 33%
    07:00 +17°C° 0 mm 2 m/s 758 mmHg 30%
    08:00 +18°C° 0 mm 2 m/s 758 mmHg 28%
    09:00 +20°C° 0 mm 2 m/s 759 mmHg 25%
    10:00 +21°C° 0 mm 2 m/s 759 mmHg 24%
    11:00 +23°C° 0 mm 2 m/s 759 mmHg 23%
    12:00 +24°C° 0 mm 2 m/s 758 mmHg 22%
    13:00 +24°C° 0 mm 3 m/s 758 mmHg 21%
    14:00 +25°C° 0 mm 3 m/s 757 mmHg 20%
    15:00 +25°C° 0 mm 3 m/s 757 mmHg 19%
    16:00 +25°C° 0 mm 3 m/s 757 mmHg 20%
    17:00 +25°C° 0 mm 3 m/s 757 mmHg 20%
    18:00 +24°C° 0 mm 2 m/s 756 mmHg 21%
    19:00 +24°C° 0 mm 2 m/s 757 mmHg 23%
    20:00 +23°C° 0 mm 2 m/s 757 mmHg 25%
    21:00 +22°C° 0 mm 1 m/s 757 mmHg 27%
    22:00 +22°C° 0 mm 1 m/s 757 mmHg 28%
    23:00 +21°C° 0 mm 1 m/s 757 mmHg 28%

    Depois de amanhã, 23 Março, Sábado

    Tempo Temperatura Precipitação Vento Pressão Humidade
    00:00 +21°C° 0 mm 1 m/s 757 mmHg 29%
    01:00 +21°C° 0 mm 1 m/s 757 mmHg 30%
    02:00 +19°C° 0 mm 2 m/s 757 mmHg 31%
    03:00 +19°C° 0 mm 2 m/s 757 mmHg 31%
    04:00 +19°C° 0 mm 1 m/s 757 mmHg 33%
    05:00 +18°C° 0 mm 1 m/s 757 mmHg 35%
    06:00 +16°C° 0 mm 0 m/s 756 mmHg 37%
    07:00 +19°C° 0 mm 1 m/s 757 mmHg 33%
    08:00 +21°C° 0 mm 1 m/s 757 mmHg 29%
    09:00 +23°C° 0 mm 1 m/s 757 mmHg 25%
    10:00 +24°C° 0 mm 2 m/s 757 mmHg 23%
    11:00 +25°C° 0 mm 2 m/s 757 mmHg 22%
    12:00 +26°C° 0 mm 3 m/s 757 mmHg 20%
    13:00 +26°C° 0 mm 3 m/s 756 mmHg 20%
    14:00 +27°C° 0 mm 3 m/s 755 mmHg 19%
    15:00 +27°C° 0 mm 3 m/s 755 mmHg 19%
    16:00 +27°C° 0 mm 2 m/s 754 mmHg 20%
    17:00 +26°C° 0 mm 2 m/s 754 mmHg 21%
    18:00 +26°C° 0 mm 2 m/s 754 mmHg 22%
    19:00 +25°C° 0.1 mm 3 m/s 754 mmHg 24%
    20:00 +24°C° 0.1 mm 3 m/s 754 mmHg 27%
    21:00 +23°C° 0.1 mm 4 m/s 754 mmHg 30%
    22:00 +22°C° 0 mm 4 m/s 753 mmHg 30%
    23:00 +22°C° 0 mm 4 m/s 752 mmHg 30%

    24 Março, Domingo

    Tempo Temperatura Precipitação Vento Pressão Humidade
    00:00 +21°C° 0 mm 4 m/s 752 mmHg 30%
    01:00 +21°C° 0.2 mm 5 m/s 751 mmHg 31%
    02:00 +20°C° 0.2 mm 5 m/s 751 mmHg 32%
    03:00 +20°C° 0.2 mm 5 m/s 750 mmHg 33%
    04:00 +19°C° 0.1 mm 5 m/s 750 mmHg 33%
    05:00 +19°C° 0.1 mm 5 m/s 750 mmHg 34%
    06:00 +19°C° 0.1 mm 5 m/s 749 mmHg 35%
    07:00 +20°C° 0 mm 8 m/s 749 mmHg 31%
    08:00 +22°C° 0 mm 10 m/s 749 mmHg 27%
    09:00 +24°C° 0 mm 12 m/s 749 mmHg 24%
    10:00 +26°C° 0 mm 12 m/s 749 mmHg 23%
    11:00 +27°C° 0 mm 11 m/s 748 mmHg 23%
    12:00 +28°C° 0 mm 11 m/s 748 mmHg 23%
    13:00 +28°C° 0 mm 9 m/s 747 mmHg 21%
    14:00 +29°C° 0 mm 8 m/s 746 mmHg 19%
    15:00 +29°C° 0 mm 6 m/s 746 mmHg 17%
    16:00 +29°C° 0 mm 5 m/s 746 mmHg 17%
    17:00 +28°C° 0 mm 4 m/s 746 mmHg 16%
    18:00 +28°C° 0 mm 3 m/s 745 mmHg 16%
    19:00 +27°C° 0 mm 5 m/s 746 mmHg 25%
    20:00 +24°C° 0 mm 8 m/s 746 mmHg 34%
    21:00 +23°C° 0 mm 10 m/s 746 mmHg 43%
    22:00 +22°C° 0 mm 10 m/s 746 mmHg 45%
    23:00 +21°C° 0 mm 10 m/s 746 mmHg 48%

    25 Março, Segunda-feira

    Tempo Temperatura Precipitação Vento Pressão Humidade
    00:00 +21°C° 0 mm 10 m/s 746 mmHg 51%
    01:00 +19°C° 0.3 mm 10 m/s 746 mmHg 55%
    02:00 +18°C° 0.3 mm 9 m/s 746 mmHg 59%
    03:00 +17°C° 0.3 mm 9 m/s 746 mmHg 63%
    04:00 +17°C° 1.1 mm 8 m/s 746 mmHg 68%
    05:00 +16°C° 1.1 mm 7 m/s 746 mmHg 74%
    06:00 +16°C° 1.1 mm 6 m/s 746 mmHg 79%
    07:00 +16°C° 0.8 mm 6 m/s 746 mmHg 79%
    08:00 +17°C° 0.8 mm 7 m/s 746 mmHg 79%
    09:00 +17°C° 0.8 mm 7 m/s 746 mmHg 79%
    10:00 +19°C° 0.1 mm 5 m/s 746 mmHg 70%
    11:00 +20°C° 0.1 mm 4 m/s 745 mmHg 61%
    12:00 +22°C° 0.1 mm 3 m/s 745 mmHg 53%
    13:00 +24°C° 0.1 mm 3 m/s 745 mmHg 45%
    14:00 +23°C° 0.1 mm 4 m/s 745 mmHg 37%
    15:00 +25°C° 0.1 mm 4 m/s 744 mmHg 29%
    16:00 +25°C° 0 mm 4 m/s 745 mmHg 30%
    17:00 +23°C° 0 mm 5 m/s 745 mmHg 30%
    18:00 +22°C° 0 mm 5 m/s 745 mmHg 30%
    19:00 +21°C° 0 mm 5 m/s 746 mmHg 34%
    20:00 +21°C° 0 mm 4 m/s 747 mmHg 37%
    21:00 +20°C° 0 mm 4 m/s 747 mmHg 41%
    22:00 +19°C° 0 mm 4 m/s 747 mmHg 43%
    23:00 +17°C° 0 mm 5 m/s 747 mmHg 46%

    26 Março, Terça-feira

    Tempo Temperatura Precipitação Vento Pressão Humidade
    00:00 +16°C° 0 mm 5 m/s 747 mmHg 48%
    01:00 +15°C° 0.8 mm 5 m/s 748 mmHg 50%
    02:00 +15°C° 0.8 mm 5 m/s 748 mmHg 53%
    03:00 +14°C° 0.8 mm 4 m/s 748 mmHg 55%
    04:00 +14°C° 0 mm 5 m/s 749 mmHg 53%
    05:00 +13°C° 0 mm 5 m/s 749 mmHg 50%
    06:00 +13°C° 0 mm 5 m/s 750 mmHg 48%
    07:00 +14°C° 0 mm 6 m/s 750 mmHg 48%
    08:00 +14°C° 0 mm 6 m/s 751 mmHg 48%
    09:00 +14°C° 0 mm 6 m/s 751 mmHg 48%
    10:00 +15°C° 0 mm 6 m/s 751 mmHg 44%
    11:00 +16°C° 0 mm 6 m/s 751 mmHg 41%
    12:00 +17°C° 0 mm 6 m/s 751 mmHg 38%
    13:00 +19°C° 0 mm 6 m/s 751 mmHg 37%
    14:00 +20°C° 0 mm 6 m/s 751 mmHg 37%
    15:00 +20°C° 0 mm 6 m/s 751 mmHg 36%
    16:00 +20°C° 0 mm 5 m/s 752 mmHg 39%
    17:00 +19°C° 0 mm 4 m/s 752 mmHg 42%
    18:00 +19°C° 0 mm 3 m/s 753 mmHg 45%
    19:00 +18°C° 0 mm 3 m/s 753 mmHg 48%
    20:00 +18°C° 0 mm 3 m/s 754 mmHg 50%
    21:00 +17°C° 0 mm 3 m/s 755 mmHg 52%
    22:00 +17°C° 0 mm 3 m/s 755 mmHg 52%
    23:00 +17°C° 0 mm 3 m/s 755 mmHg 53%
    Mostrar mais